sat.trackr.live / text

‹ back to catalog

STARLINK-5590

NORAD 55371 · 2023-013AS

PAYLOAD ACTIVE UNKNOWN

§ Identity

Operator
Country
US
Launch date
2023-01-26
Launch site
AFETR
Launch vehicle
Mass (kg)
RCS (m²)

Purposes: comms

External: N2YO · Heavens-Above · Gunter

§ Orbital elements

Epoch: 2026-05-24T18:40:16.562208Z

Period
94.27 min
Inclination
43.0011°
Eccentricity
0.0001248
Mean motion
15.27580821 rev/d
Perigee alt
482.2 km
Apogee alt
483.9 km
Semi-major
6,861.2 km
B*
-1.9489e-6
RAAN
251.5030°
Arg perigee
275.3441°
Mean anomaly
84.7268°
Rev number
18,402

§ Raw data

STARLINK-55901 55371U 23013AS  26144.77796947 -.00000316  00000+0 -19489-5 0  99902 55371  43.0011 251.5030 0001248 275.3441  84.7268 15.27580821184028

JSON: /api/v1/satellites/55371 · /tle

For live sub-satellite position, see the globe view (requires WebGL).

§ Visibility from observer

Set your observer location to see the next 7 days of passes ≥ 10°. The values pass through the URL so the page stays shareable.

No JS? Fill the form by hand. The geolocation button needs JavaScript.